SCP
0 0 0 0 0 0 0 0 0 0 0 0 0 0 0 0 0 0 0 0 0 0 0 0 0 0 0 0 0 0 0 0 0 0 0 1 1 1 1 1 1 1 1
0 0 0 0 0 0 0 0 0 0 0 0 0 0 0 0 0 0 0 0 0 0 0 0 0 0 0 0 0 0 0 0 0 0 0 0 1 1 1 1 1 1 1
0 0 0 0 0 0 0 0 0 0 0 0 0 0 0 0 0 0 0 0 0 0 0 0 0 0 0 0 0 0 0 0 0 0 0 0 1 1 1 1 1 1 1
0 0 0 0 0 0 0 0 0 0 0 0 0 0 0 0 0 0 0 0 0 0 0 0 0 0 0 0 0 0 0 0 0 0 0 0 1 1 1 1 1 1 1
0 0 0 0 0 0 0 0 0 0 0 0 0 0 0 0 0 0 0 0 0 0 0 0 0 0 0 0 0 0 0 0 0 0 0 0 0 1 1 1 1 1 1
0 0 0 0 0 0 0 0 0 0 0 0 0 0 0 0 0 0 0 0 0 0 0 0 0 0 0 0 0 0 0 0 0 0 0 0 0 0 1 1 1 1 1
0 0 0 0 0 0 0 0 0 0 0 0 0 0 0 0 0 0 0 0 0 0 0 0 0 0 0 0 0 0 0 0 0 0 0 0 0 0 0 0 1 1 0
0 0 0 0 0 0 0 0 0 0 0 0 0 0 0 0 0 0 0 0 0 0 0 0 0 0 0 0 0 0 0 0 0 0 0 0 0 0 0 0 0 0 0
0 0 0 0 0 0 0 0 0 0 0 0 0 0 0 0 0 0 0 0 0 0 0 0 0 0 0 0 0 0 0 0 0 0 0 0 0 0 0 0 0 0 0
0 0 0 0 0 0 0 0 0 0 0 0 0 0 0 0 0 0 0 0 0 0 0 0 0 0 0 0 0 0 0 0 0 0 0 0 0 0 0 0 0 0 0
0 0 0 0 0 0 0 0 0 0 0 0 0 0 0 0 0 0 0 0 0 0 0 0 0 0 0 0 0 0 0 0 0 0 0 0 0 0 0 0 0 0 0
0 0 0 0 0 0 0 0 0 0 0 0 0 0 0 0 0 0 0 0 0 0 0 0 0 0 0 0 0 0 0 0 0 0 0 0 0 0 0 0 0 0 0
0 0 0 0 0 0 0 0 0 0 0 0 0 0 0 0 0 0 0 0 0 0 0 0 0 0 0 0 0 0 0 0 0 0 0 0 0 0 0 0 0 0 0
0 0 0 0 0 0 0 0 0 0 0 0 0 0 0 0 0 0 0 0 0 0 0 0 0 0 0 0 0 0 0 0 0 0 0 0 0 0 0 0 0 0 0
0 0 0 0 0 0 0 0 0 0 0 0 0 0 0 0 0 0 0 0 0 0 0 0 0 0 0 0 0 0 0 0 0 0 0 0 0 0 0 0 0 0 0
0 0 0 0 0 0 0 0 0 0 0 0 0 0 0 0 0 0 0 0 0 0 0 0 0 0 0 0 0 0 0 0 0 0 0 0 0 0 0 0 0 0 0
0 0 0 0 0 0 0 0 0 0 0 0 0 0 0 0 0 0 0 0 0 0 0 0 0 0 0 0 0 0 0 0 0 0 0 0 0 0 0 0 0 0 0
0 0 0 0 0 0 0 0 0 0 0 0 0 0 0 0 0 0 0 0 0 0 0 0 0 0 0 0 0 0 0 0 0 0 0 0 0 0 0 0 0 0 0
0 0 0 0 0 0 0 0 0 0 0 0 0 0 0 0 0 0 0 0 0 0 0 0 0 0 0 0 0 0 0 0 0 0 0 0 0 0 0 0 0 0 0
0 0 0 0 0 0 0 0 0 0 0 0 0 0 0 0 0 0 0 0 0 0 0 0 0 0 0 0 0 0 0 0 0 0 0 0 0 0 0 0 0 0 0
0 0 0 0 0 0 0 0 0 0 0 0 0 0 0 0 0 0 0 0 0 0 0 0 0 0 0 0 0 0 0 0 0 0 0 0 0 0 0 0 0 0 0
0 0 0 0 0 0 0 0 0 0 0 0 0 0 0 0 0 0 0 0 0 0 0 0 0 0 0 0 0 0 0 0 0 0 0 0 0 0 0 0 0 0 0
0 0 0 0 0 0 0 0 0 0 0 0 0 0 0 0 0 0 0 0 0 0 0 0 0 0 0 0 0 0 0 0 0 0 0 0 0 0 0 0 0 0 0
0 0 0 0 0 0 0 0 0 0 0 0 0 0 0 0 0 0 0 0 0 0 0 0 0 0 0 0 0 0 0 0 0 0 0 0 0 0 0 0 0 0 0
0 0 0 0 0 0 0 0 0 0 0 0 0 0 0 0 0 0 0 0 0 0 0 0 0 0 0 0 0 0 0 0 0 0 0 0 0 0 0 0 0 0 0
0 0 0 0 0 0 0 0 0 0 0 0 0 0 0 0 0 0 0 0 0 0 0 0 0 0 0 0 0 0 0 0 0 0 0 0 0 0 0 0 0 0 0
Wind_Speed
16 16 16 15 16 16 15 17 18 18 19 19 20 19 19 18 17 16 16 17 16 15 15 13 12 11 8 8 8 9 10 9 9 8 6 7 10 10 8 8 9 9 9
15 15 15 15 16 16 17 18 18 19 18 18 19 19 19 19 18 18 17 16 15 15 15 14 10 7 7 6 7 9 9 9 8 9 7 8 9 11 10 9 8 7 9
15 15 15 16 16 17 17 18 18 18 19 18 18 18 18 18 19 19 16 16 14 15 15 14 12 10 9 7 8 8 8 8 7 6 8 7 6 8 10 8 8 7 10
15 15 15 16 17 17 17 18 18 18 18 18 18 18 18 18 18 20 13 13 14 14 14 14 13 12 11 8 6 7 7 7 7 6 8 7 7 9 10 10 9 7 8
15 15 15 16 16 16 17 17 18 18 18 18 18 18 18 16 17 22 9 9 12 14 14 13 13 17 20 11 4 5 5 3 3 3 5 5 6 9 9 9 11 10 8
14 14 15 15 16 16 16 16 17 17 17 17 17 18 18 15 27 31 17 10 10 12 13 13 12 14 18 22 23 21 16 6 2 1 2 5 4 4 5 8 12 12 8
14 14 15 15 16 16 16 16 16 16 17 17 17 18 18 20 30 31 23 12 11 11 12 11 10 12 15 12 18 23 24 27 21 8 7 5 5 5 2 6 7 11 8
14 14 15 15 16 16 16 16 15 14 15 15 16 18 17 20 29 32 23 11 10 11 12 11 12 14 15 15 14 15 16 19 20 14 12 12 10 8 6 5 9 11 9
15 15 16 16 16 16 16 16 14 14 14 14 14 16 17 18 26 31 17 9 9 12 13 13 14 15 23 23 17 16 16 15 19 26 27 26 28 27 16 6 5 8 6
16 16 17 16 16 16 16 16 14 14 14 14 14 15 15 16 23 27 20 10 10 10 10 12 21 22 25 24 16 15 15 14 14 16 19 21 19 22 25 15 8 4 6
16 17 17 16 16 15 14 14 14 13 13 13 14 14 13 15 20 25 24 12 10 9 8 9 13 24 25 25 20 15 16 13 12 13 12 13 14 14 15 15 13 9 7
16 16 16 16 14 12 14 13 13 12 12 12 12 12 10 12 17 19 23 23 18 10 8 8 12 22 23 24 18 20 20 15 9 10 11 12 12 12 12 13 14 14 13
16 16 15 15 14 13 13 13 12 11 10 10 9 9 9 10 12 16 17 20 22 13 10 16 18 20 18 16 21 22 17 11 10 10 11 10 10 10 9 8 10 12 14
16 15 14 14 14 14 11 10 10 10 10 10 8 7 8 9 9 8 9 10 12 11 9 12 16 18 15 15 15 13 11 11 10 10 9 9 8 8 9 8 7 6 8
15 14 14 12 13 13 12 10 11 10 11 12 8 7 7 8 10 15 11 9 8 8 6 7 8 8 9 9 9 9 9 9 10 9 9 9 9 9 9 9 8 7 7
14 14 11 11 11 11 11 11 13 14 16 16 14 12 8 11 13 15 15 15 15 12 8 7 8 8 8 8 8 8 8 8 8 8 8 8 8 8 8 7 7 7 7
14 13 11 11 11 11 11 11 11 12 13 13 14 14 12 12 12 13 13 12 13 11 8 7 7 7 7 6 6 6 6 7 6 6 7 7 7 6 6 6 6 6 6
13 13 13 11 11 11 11 10 10 10 9 8 9 11 12 12 10 11 9 7 7 7 6 6 6 5 5 5 5 5 5 5 5 5 5 5 6 5 5 5 5 5 4
12 10 10 10 10 10 10 10 9 9 8 7 6 6 9 8 7 7 6 5 5 5 5 5 5 5 4 4 4 4 4 4 4 4 4 4 4 4 4 4 3 4 3
10 14 14 10 10 10 10 10 10 9 8 7 6 6 6 4 3 3 3 4 4 4 5 5 5 5 4 4 4 4 4 3 3 2 3 2 2 2 2 2 2 2 2
8 10 14 11 10 10 9 9 9 9 8 7 6 8 10 4 4 4 4 4 4 5 5 5 5 5 4 4 3 4 4 4 3 3 2 2 2 3 3 3 3 3 2
7 8 9 9 9 10 10 8 8 8 8 8 6 6 8 5 4 4 5 5 4 4 4 5 5 4 4 4 4 4 4 4 4 3 3 3 3 4 4 4 4 4 4
8 8 9 9 9 11 10 8 8 8 8 8 7 6 5 5 4 5 5 5 5 5 4 5 5 5 4 4 4 4 5 5 5 5 5 5 5 5 5 6 6 6 6
8 9 9 9 9 9 9 8 8 8 8 8 7 6 6 5 5 6 6 5 6 6 6 6 6 8 9 7 5 5 6 7 7 7 9 8 7 6 6 6 7 8 8
8 8 9 9 9 9 8 8 8 8 8 7 7 7 7 6 6 6 6 6 7 7 8 8 7 7 9 10 9 8 10 14 13 9 8 8 9 8 8 8 7 8 8
8 9 9 9 9 9 9 8 8 8 8 7 7 7 7 7 7 7 7 6 7 7 8 7 8 10 11 10 11 13 15 15 12 8 5 6 7 7 7 7 8 8 8
Wind_Direction
340 338 337 337 337 334 333 331 329 326 326 327 327 326 325 326 328 320 316 322 324 320 314 294 268 263 262 261 254 243 233 229 242 260 251 214 195 184 177 173 153 148 138
338 337 337 338 338 338 336 333 331 329 329 329 329 327 328 330 329 324 318 329 331 330 329 325 313 301 298 300 289 264 243 228 228 244 231 208 197 181 166 158 148 139 137
338 337 338 340 340 339 337 334 334 333 332 333 333 330 329 330 327 326 319 332 336 335 337 339 339 338 325 310 306 289 260 236 221 230 235 208 183 166 156 146 135 133 138
336 338 339 339 338 337 336 334 336 336 335 335 334 333 331 330 327 326 325 337 342 341 342 345 348 351 339 310 300 299 273 236 222 221 221 198 173 164 161 149 136 131 133
334 336 336 335 333 333 333 335 336 337 337 336 337 336 336 334 330 333 333 347 348 346 348 349 351 3 0 4 358 328 299 260 228 208 193 175 162 164 165 161 142 125 116
330 330 330 331 332 331 330 335 337 336 336 337 337 337 339 338 335 343 352 352 353 353 353 354 355 7 10 18 34 37 31 19 347 306 148 120 98 118 143 151 145 143 130
325 325 325 326 329 328 328 331 335 333 334 335 335 337 339 337 338 344 350 351 359 2 359 1 10 13 23 22 32 37 32 34 38 42 59 59 58 18 91 152 167 147 118
321 321 322 324 322 322 326 326 330 333 330 329 332 336 338 339 340 342 344 355 6 8 6 15 26 24 29 31 36 42 39 34 36 39 46 50 56 41 25 60 96 98 90
321 321 321 320 320 320 321 320 328 331 328 327 331 335 340 341 343 344 5 10 11 10 15 31 40 38 36 36 34 37 37 29 30 41 45 44 43 45 40 55 100 126 106
325 321 319 319 321 322 320 322 325 326 328 328 329 334 341 344 347 352 16 12 14 9 14 35 45 46 40 40 37 36 36 28 26 30 36 36 38 38 39 36 30 73 101
323 319 319 323 325 323 323 323 322 322 324 327 330 334 343 349 351 358 15 12 10 12 18 32 44 49 47 43 41 38 39 36 34 36 38 37 38 39 38 38 38 43 64
321 321 324 327 326 324 325 325 324 324 323 325 329 335 345 349 355 360 15 22 22 20 32 37 44 48 48 47 44 39 38 37 36 40 41 38 35 38 43 47 49 53 55
323 326 327 326 325 327 329 329 329 328 324 322 318 326 342 346 351 5 24 31 31 33 41 55 52 49 46 44 43 41 37 33 33 38 40 40 37 34 37 51 64 63 59
326 328 328 328 328 331 334 334 331 328 325 327 338 344 343 344 355 14 25 29 35 41 35 39 45 48 48 45 42 39 37 37 36 36 37 37 37 37 36 31 41 55 64
329 330 329 328 329 333 337 337 338 340 346 355 352 344 345 347 11 32 36 34 37 48 47 42 39 36 37 38 41 40 37 35 36 33 32 33 34 37 36 30 36 52 58
332 334 331 330 335 339 340 342 350 352 354 2 0 358 353 360 28 42 43 44 44 45 48 44 40 35 33 30 31 34 35 34 31 32 32 32 32 33 36 36 37 45 55
336 335 331 336 343 344 343 341 340 345 357 6 4 0 5 14 43 50 49 49 48 45 48 46 41 34 31 28 26 26 29 28 23 27 30 27 27 31 34 35 36 46 54
340 339 340 342 342 340 341 341 341 343 348 0 3 3 6 14 40 49 42 41 45 43 39 37 35 31 26 22 20 19 16 16 17 15 20 23 19 20 26 30 32 30 45
345 347 344 343 342 344 348 349 349 350 355 357 357 5 9 9 23 31 17 13 19 22 21 19 16 13 11 5 1 1 2 5 9 357 4 9 9 9 13 13 20 22 25
350 351 352 348 348 351 356 356 353 354 359 360 359 356 339 331 340 349 350 348 346 352 354 355 356 352 346 342 336 331 330 335 346 339 345 342 337 335 336 328 335 342 352
344 344 351 352 354 355 356 355 353 354 0 358 356 355 9 5 345 335 326 325 325 328 332 335 336 337 329 324 318 311 305 309 315 313 304 292 281 277 280 281 278 277 283
339 341 346 351 354 356 356 352 350 351 355 355 351 350 352 345 334 325 323 321 321 315 314 314 314 319 316 312 308 305 299 293 290 282 271 261 252 252 253 253 254 256 253
339 341 345 347 350 354 354 350 348 347 346 346 345 343 340 334 325 317 314 314 312 304 302 300 299 301 305 294 283 279 280 281 277 272 266 259 248 244 242 242 243 248 249
343 342 342 342 343 350 351 348 346 341 337 335 336 334 329 319 308 301 298 297 297 295 293 290 288 291 294 292 282 273 267 269 270 260 250 249 252 252 248 245 247 246 245
346 343 341 339 339 341 343 342 339 335 328 324 323 321 316 310 302 294 289 284 284 282 285 286 283 284 286 288 287 282 280 281 278 264 235 231 239 245 249 251 249 248 244
346 344 340 338 340 339 335 331 328 325 319 315 311 308 305 302 297 292 287 281 280 279 278 278 276 277 280 281 281 283 287 290 292 273 242 222 228 238 240 241 240 240 242